Weather Roundup
Issued by NWS Chicago, IL

Home | Current Version | Previous Version | Graphics & Text | Print | Product List | Glossary On
Versions: 1 2 3 4 5 6 7 8 9 10 11 12 13 14 15 16 17 18 19 20 21 22 23 24 25 26 27 28 29 30 31 32 33 34 35 36 37 38 39 40 41 42 43 44 45 46 47 48 49 50
000
NZUS59 KLOT 210608
HRRLOT

CHICAGO AREA WEATHER ROUNDUP
NATIONAL WEATHER SERVICE CHICAGO/ROMEOVILLE IL
1200 AM CST TUE FEB 21 2017

NOTE: "FAIR" INDICATES FEW OR NO CLOUDS BELOW 12,000 FEET WITH NO
SIGNIFICANT WEATHER AND/OR OBSTRUCTIONS TO VISIBILITY.

* THESE STATIONS ARE NOT UNDER NWS QUALITY CONTROL. THEY ALSO MAY NOT
  REPORT WEATHER SUCH AS PRECIPITATION OR FOG.

ILZ005-006-012>014-019>023-210700-
NORTHEAST ILLINOIS

CITY           SKY/WX    TMP DP  RH WIND       PRES   REMARKS
OHARE          CLOUDY    60  46  59 S13       29.91R
6HR MIN TEMP:  60; 6HR MAX TEMP:  65;

MIDWAY         CLOUDY    60  45  57 S13       29.92S
6HR MIN TEMP:  59; 6HR MAX TEMP:  64;

AURORA         CLOUDY    57  48  72 S7        29.92R
6HR MIN TEMP:  57; 6HR MAX TEMP:  64;

LANSING*       CLOUDY    56  49  77 S9        29.94S
JOLIET*        CLOUDY    58  48  68 S7        29.93R
WAUKEGAN       MOCLDY    58  45  62 S13       29.89S
6HR MIN TEMP:  53; 6HR MAX TEMP:  59;

DUPAGE AIRPORT CLOUDY    56  45  66 S7        29.91R
6HR MIN TEMP:  56; 6HR MAX TEMP:  64;

WHEELING       CLOUDY    58  44  60 S14       29.91F
6HR MIN TEMP:  58; 6HR MAX TEMP:  63;

KANKAKEE*      CLOUDY    56  46  70 SE5       29.95R
MORRIS*        MOCLDY    56  47  72 CALM      29.92R
LEWIS AIRPORT* CLOUDY    55  49  81 S8        29.92S
NORTHERLY ISL    N/A     58  45  62 SE12        N/A
$$

WIZ051-052-058>065-066-070>072-210700-
SOUTHEAST WISCONSIN

CITY           SKY/WX    TMP DP  RH WIND       PRES   REMARKS
MILWAUKEE      CLOUDY    55  43  63 S5        29.88S
6HR MIN TEMP:  55; 6HR MAX TEMP:  59;

KENOSHA*       MOCLDY    59  45  59 SW10      29.89S
RACINE*        MOCLDY    47  39  74 S6        29.90S
WAUKESHA       CLOUDY    55  46  71 S9        29.88F
WEST BEND      CLOUDY    52  48  87 S6        29.87F
$$

INZ001>003-010>013-019-020-210700-
NORTHWEST INDIANA

CITY           SKY/WX    TMP DP  RH WIND       PRES   REMARKS
GARY*          PTCLDY    59  46  60 S10G17    29.94R
6HR MIN TEMP:  59; 6HR MAX TEMP:  64;

MICHIGAN CITY* NOT AVBL
RENSSELAER*    NOT AVBL
VALPARAISO     CLOUDY    57  47  69 SE8G17    29.96S
$$

LMZ740>746-210700-
SOUTHERN LAKE MICHIGAN

STATION/POSITION TIME  SKY/WX   TEMP WIND        PRES    VSBY
                                AIR  DIR/SP/G
                 (UTC)          (F)  (DEG/KT/KT) (MB)    (MI)
HARRISON CRIB    0540            55  180/ 18/ 19   N/A
BURNHAM HARBOR   0600            58  160/  6/ 13   N/A
CALUMET HARBOR   0542                160/ 11/ 14 1012.9R
BURNS HARBOR     0540            58  170/ 14/ 24 1014.2S
MICHIGAN CITY    0540            57  130/ 14/ 17   N/A
$$

ABBREVIATIONS USED IN REMARKS
   TC - TEMPERATURE IN CELSIUS
  WCI - WIND CHILL INDEX
   HX - HEAT INDEX
  VSB - VISIBILITY
$$




USA.gov is the U.S. government's official web portal to all federal, state and local government web resources and services.